TimeCDT,TemperatureF,Dew PointF,Humidity,Sea Level PressureIn,VisibilityMPH,Wind Direction,Wind SpeedMPH,Gust SpeedMPH,PrecipitationIn,Events,Conditions,WindDirDegrees,DateUTC
12:54 AM,45.0,43.0,93,29.92,10.0,West,4.6,-,N/A,,Overcast,260,2011-10-18 05:54:00
1:54 AM,45.0,42.1,90,29.90,10.0,West,6.9,-,N/A,,Overcast,280,2011-10-18 06:54:00
2:54 AM,45.0,42.1,90,29.89,10.0,West,6.9,-,N/A,,Overcast,280,2011-10-18 07:54:00
3:54 AM,45.0,41.0,86,29.89,10.0,West,6.9,-,N/A,,Overcast,280,2011-10-18 08:54:00
4:54 AM,44.6,41.0,87,29.87,10.0,West,3.5,-,N/A,,Overcast,280,2011-10-18 09:54:00
5:54 AM,44.1,39.9,85,29.89,10.0,West,5.8,-,N/A,,Mostly Cloudy,280,2011-10-18 10:54:00
6:54 AM,44.6,39.2,81,29.88,10.0,West,5.8,-,N/A,,Mostly Cloudy,280,2011-10-18 11:54:00
7:54 AM,44.1,39.9,85,29.88,10.0,WNW,5.8,-,N/A,,Clear,300,2011-10-18 12:54:00
8:54 AM,44.6,39.2,81,29.89,10.0,WNW,5.8,-,N/A,,Scattered Clouds,300,2011-10-18 13:54:00
9:54 AM,46.0,39.9,79,29.89,10.0,NW,9.2,-,N/A,,Overcast,320,2011-10-18 14:54:00
10:54 AM,46.9,39.0,74,29.89,10.0,NNW,11.5,-,N/A,,Overcast,330,2011-10-18 15:54:00
11:54 AM,50.0,39.0,66,29.88,10.0,NNW,11.5,-,N/A,,Partly Cloudy,330,2011-10-18 16:54:00
12:54 PM,51.1,37.0,59,29.88,10.0,NW,12.7,-,N/A,,Partly Cloudy,320,2011-10-18 17:54:00
1:54 PM,51.1,35.1,54,29.87,10.0,NW,17.3,-,N/A,,Clear,310,2011-10-18 18:54:00
2:54 PM,51.1,33.1,50,29.87,10.0,NW,16.1,-,N/A,,Partly Cloudy,320,2011-10-18 19:54:00
3:54 PM,50.0,34.0,54,29.88,10.0,NW,13.8,-,N/A,,Clear,310,2011-10-18 20:54:00
4:54 PM,48.9,34.0,56,29.88,10.0,NNW,15.0,-,N/A,,Scattered Clouds,330,2011-10-18 21:54:00
5:54 PM,48.0,35.1,61,29.89,10.0,NW,9.2,-,N/A,,Mostly Cloudy,310,2011-10-18 22:54:00
6:54 PM,48.0,35.1,61,29.89,10.0,NNW,18.4,-,N/A,,Overcast,340,2011-10-18 23:54:00
7:54 PM,46.4,33.8,62,29.90,10.0,NNW,16.1,-,N/A,,Mostly Cloudy,330,2011-10-19 00:54:00
8:54 PM,45.0,34.0,65,29.91,10.0,NNW,12.7,-,N/A,,Mostly Cloudy,330,2011-10-19 01:54:00
9:54 PM,45.0,34.0,65,29.91,10.0,NNW,12.7,-,N/A,,Overcast,340,2011-10-19 02:54:00
10:54 PM,45.0,34.0,65,29.90,10.0,NNW,11.5,-,N/A,,Overcast,330,2011-10-19 03:54:00
11:54 PM,45.0,35.1,68,29.89,10.0,NNW,11.5,-,N/A,,Overcast,340,2011-10-19 04:54:00